Weather Roundup
Issued by NWS Chicago, IL

Home | Current Version | Previous Version | Text Only | Print | Product List | Glossary Off
Versions: 1 2 3 4 5 6 7 8 9 10 11 12 13 14 15 16 17 18 19 20 21 22 23 24 25 26 27 28 29 30 31 32 33 34 35 36 37 38 39 40 41 42 43 44 45 46 47 48 49 50

000
NZUS59 KLOT 291203
HRRLOT

CHICAGO AREA WEATHER ROUNDUP
NATIONAL WEATHER SERVICE CHICAGO/ROMEOVILLE IL
700 AM CDT THU JUN 29 2017

NOTE: "FAIR" INDICATES FEW OR NO CLOUDS BELOW 12,000 FEET WITH NO
SIGNIFICANT WEATHER AND/OR OBSTRUCTIONS TO VISIBILITY.

* THESE STATIONS ARE NOT UNDER NWS QUALITY CONTROL. THEY ALSO MAY NOT
  REPORT WEATHER SUCH AS PRECIPITATION OR FOG.

ILZ005-006-012>014-019>023-291300-
NORTHEAST ILLINOIS

CITY           SKY/WX    TMP DP  RH WIND       PRES   REMARKS
OHARE          CLOUDY    71  62  73 SW7       29.76R
6HR MIN TEMP:  66; 6HR MAX TEMP:  72;

MIDWAY         CLOUDY    73  64  73 SW12      29.78R
6HR MIN TEMP:  68; 6HR MAX TEMP:  74;

AURORA         CLOUDY    70  62  76 S9        29.79R
6HR MIN TEMP:  68; 6HR MAX TEMP:  74;

LANSING*       MOSUNNY   73  62  66 SW10      29.80R
JOLIET*        CLOUDY    73  64  75 S6        29.80R
WAUKEGAN       PTSUNNY   69  64  84 SW14      29.74R
6HR MIN TEMP:  62; 6HR MAX TEMP:  70;

DUPAGE AIRPORT CLOUDY    69  64  84 SW9       29.77S
6HR MIN TEMP:  68; 6HR MAX TEMP:  71;

WHEELING       CLOUDY    70  65  84 SW9       29.78R
6HR MIN TEMP:  66; 6HR MAX TEMP:  70;

MORRIS*        CLOUDY    70  62  76 SW6       29.78S
LEWIS AIRPORT* CLOUDY    71  62  73 SW12      29.80R
$$

WIZ051-052-058>065-066-070>072-291300-
SOUTHEAST WISCONSIN

CITY           SKY/WX    TMP DP  RH WIND       PRES   REMARKS
MILWAUKEE      PTSUNNY   71  65  81 SW15      29.70R
6HR MIN TEMP:  66; 6HR MAX TEMP:  71; 6HR PCP:  0.19;

KENOSHA*       CLOUDY    70  64  81 SW10      29.73R
RACINE*        MOSUNNY   69  64  84 SW8       29.74R
WAUKESHA       PTSUNNY   66  64  94 W14G20    29.72R
$$

INZ001>003-010>013-019-020-291300-
NORTHWEST INDIANA

CITY           SKY/WX    TMP DP  RH WIND       PRES   REMARKS
GARY*          PTSUNNY   75  61  60 SW12G23   29.79R
MICHIGAN CITY* NOT AVBL
RENSSELAER*    NOT AVBL
VALPARAISO     CLOUDY    76  65  68 SW12      29.82R
$$

LMZ740>746-291300-
SOUTHERN LAKE MICHIGAN

STATION/POSITION TIME  SKY/WX   TEMP WIND        PRES    VSBY
                                AIR  DIR/SP/G
                 (UTC)          (F)  (DEG/KT/KT) (MB)    (MI)
HARRISON CRIB    1140            75  230/ 20/ 22   N/A
BURNHAM HARBOR   1200            73                N/A
CALUMET HARBOR   1130            73  200/  9/ 12 1007.9R
BURNS HARBOR     1140            75  220/ 14/ 20 1009.1R
MICHIGAN CITY    1140            74  200/ 15/ 18   N/A
$$

ABBREVIATIONS USED IN REMARKS
   TC - TEMPERATURE IN CELSIUS
  WCI - WIND CHILL INDEX
   HX - HEAT INDEX
  VSB - VISIBILITY
$$



USA.gov is the U.S. government's official web portal to all federal, state and local government web resources and services.